TimeCST,TemperatureF,Dew PointF,Humidity,Sea Level PressureIn,VisibilityMPH,Wind Direction,Wind SpeedMPH,Gust SpeedMPH,PrecipitationIn,Events,Conditions,WindDirDegrees,DateUTC
12:52 AM,17.1,14.0,88,30.35,10.0,South,3.5,-,N/A,,Clear,190,2011-11-10 06:52:00
2:52 AM,12.2,10.4,92,30.24,10.0,Calm,Calm,-,N/A,,Clear,0,2011-11-10 08:52:00
4:52 AM,12.9,10.0,88,30.27,10.0,SW,4.6,-,N/A,,Clear,220,2011-11-10 10:52:00
5:52 AM,17.6,15.8,93,30.14,10.0,Calm,Calm,-,N/A,,Clear,0,2011-11-10 11:52:00
6:52 AM,19.0,17.1,92,30.22,10.0,Calm,Calm,-,N/A,,Clear,0,2011-11-10 12:52:00
7:52 AM,19.9,18.0,92,30.19,10.0,SSW,3.5,-,N/A,,Scattered Clouds,200,2011-11-10 13:52:00
8:52 AM,24.1,19.9,84,30.14,10.0,South,4.6,-,N/A,,Overcast,180,2011-11-10 14:52:00
9:52 AM,27.0,21.0,78,30.11,10.0,South,6.9,-,N/A,,Scattered Clouds,170,2011-11-10 15:52:00
10:52 AM,30.0,23.0,75,30.07,10.0,South,6.9,-,N/A,,Clear,180,2011-11-10 16:52:00
11:52 AM,34.0,24.1,67,30.03,10.0,South,8.1,-,N/A,,Mostly Cloudy,190,2011-11-10 17:52:00
12:52 PM,37.0,25.0,62,29.96,10.0,SSW,6.9,-,N/A,,Overcast,210,2011-11-10 18:52:00
1:52 PM,37.9,25.0,60,29.92,10.0,SW,10.4,-,N/A,,Scattered Clouds,220,2011-11-10 19:52:00
2:52 PM,42.1,26.1,53,29.87,10.0,SSW,11.5,-,N/A,,Partly Cloudy,210,2011-11-10 20:52:00
3:52 PM,42.8,26.6,53,29.75,10.0,SSW,8.1,-,N/A,,Scattered Clouds,210,2011-11-10 21:52:00
4:52 PM,39.0,27.0,62,29.80,10.0,SW,8.1,-,N/A,,Clear,220,2011-11-10 22:52:00
5:52 PM,37.0,27.0,67,29.77,10.0,SW,8.1,-,N/A,,Clear,230,2011-11-10 23:52:00
6:52 PM,37.0,26.1,65,29.75,10.0,SW,6.9,-,N/A,,Clear,220,2011-11-11 00:52:00
7:52 PM,33.1,26.1,75,29.73,10.0,SW,6.9,-,N/A,,Clear,230,2011-11-11 01:52:00
8:52 PM,33.1,26.1,75,29.71,10.0,WSW,9.2,-,N/A,,Clear,240,2011-11-11 02:52:00
9:52 PM,34.0,26.1,73,29.69,10.0,SW,11.5,-,N/A,,Clear,230,2011-11-11 03:52:00
10:52 PM,37.0,26.1,65,29.68,10.0,WSW,10.4,-,N/A,,Clear,250,2011-11-11 04:52:00
11:52 PM,37.9,25.0,60,29.66,10.0,West,15.0,-,N/A,,Clear,260,2011-11-11 05:52:00